Regional Weather Roundup
Issued by NWS

Home | Current Version | Previous Version | Text Only | Print | Product List | Glossary On
Versions: 1 2 3 4 5 6 7 8 9 10 11 12 13 14 15 16 17 18 19 20 21 22 23 24 25 26 27 28 29 30 31 32 33 34 35 36 37 38 39 40 41 42 43 44 45 46 47 48 49 50
000
ASUS43 KDTX 242110
RWRMI
MICHIGAN HOURLY REGIONAL WEATHER ROUNDUP
NATIONAL WEATHER SERVICE DETROIT/PONTIAC MI
500 PM EDT SAT JUN 24 2017

NOTE: "FAIR" INDICATES FEW OR NO CLOUDS BELOW 12,000 FEET WITH NO
SIGNIFICANT WEATHER AND/OR OBSTRUCTION TO VISIBILITY.

MIZ047>049-052>055-059>063-066>070-074>076-081>083-242200-
SOUTHEAST LOWER MICHIGAN

CITY           SKY/WX    TMP DP  RH WIND       PRES   REMARKS
ADRIAN         MOSUNNY   76  51  41 NW17G29   29.93R
ALMA           MOSUNNY   72  55  55 W20G30    29.91R
ANN ARBOR      MOSUNNY   77  52  41 W16G24    29.90R
BAD AXE        CLOUDY    63  55  76 NW9       29.89R
CARO           CLOUDY    70  57  64 W8        29.89R
DETROIT CITY   PTSUNNY   76  51  41 W12       29.87R
DETROIT        PTSUNNY   77  53  43 W18G29    29.89S
FLINT          MOSUNNY   74  55  51 W16       29.89R
GROSSE ILE     CLOUDY    76  55  48 W9        29.88S
HILLSDALE      MOSUNNY   72  46  40 W18G25    29.95R
HOWELL         MOSUNNY   74  48  39 W16       29.91R

CITY           SKY/WX    TMP DP  RH WIND       PRES   REMARKS
JACKSON        MOSUNNY   72  49  44 W16G28    29.94R
LAMBERTVILLE   MOSUNNY   77  52  42 W16       29.91S
LANSING        MOSUNNY   73  51  46 W16G29    29.93R
LAPEER         PTSUNNY   72  54  53 W16G22    29.89R
MASON          MOSUNNY   74  52  46 W17G28    29.93R
MONROE         MOSUNNY   76  55  47 W15G28    29.89S
MT. CLEMENS    PTSUNNY   79  51  37 W16       29.84R
PONTIAC        MOSUNNY   77  44  30 W23G32    29.88R
PORT HOPE        N/A     65  54  67 W8        29.86R
PORT HURON     PTSUNNY   75  50  41 W10G17    29.86R
TRI CITIES     LGT RAIN  61  56  83 W15       29.92R
MIDLAND        RAIN      63  54  72 NW5       29.91R
TROY           MOSUNNY   79  45  29 W13G24    29.89S
SAGINAW HB     PTSUNNY   66  54  63 W21       29.90R
$$
MIZ043>046-050>051-056>058-064>065-071>073-077>080-242200-
SOUTHWEST LOWER MICHIGAN

CITY           SKY/WX    TMP DP  RH WIND       PRES   REMARKS
BATTLE CREEK   PTSUNNY   71  52  50 W16G26    29.97R
BENTON HARBOR  SUNNY     71  50  47 W12       29.99S
BIG RAPIDS     MOSUNNY   68  48  48 W16G25    29.91R
COLDWATER      MOSUNNY   73  48  40 W17G24    29.96S
FREMONT        PTSUNNY   69  46  43 NW16G28   29.94R
HOLLAND        SUNNY     71  51  49 W13G22    29.98R
GRAND RAPIDS   PTSUNNY   69  51  52 W20G28    29.94S
IONIA          PTSUNNY   69  52  54 W17G24    29.92S
KALAMAZOO      MOSUNNY   73  48  41 NW18G25   29.97S
LUDINGTON      MOSUNNY   67  56  66 W8G17     29.92S
MARSHALL       PTSUNNY   73  50  43 W15G22    29.95R
MOUNT PLEASANT CLOUDY    68  56  65 W9G17     29.89R
MUSKEGON       MOSUNNY   70  52  52 W13G23    29.96R
SOUTH HAVEN    SUNNY     70  56  59 W13       29.98S
$$
MIZ016>042-242200-
NORTHERN LOWER MICHIGAN

CITY           SKY/WX    TMP DP  RH WIND       PRES   REMARKS
ALPENA         CLOUDY    63  56  78 SE10      29.86R
BEAVER ISLAND  CLOUDY    66  54  63 SW13      29.88R
BELLAIRE       CLOUDY    69  52  56 NW5       29.88S
CADILLAC       CLOUDY    65  52  62 W14G25    29.90R
CHARLEVOIX     SUNNY     66  53  61 W14       29.91S
FRANKFORT      PTSUNNY   63  53  68 W8        29.91R
GAYLORD        PTSUNNY   70  46  42 W8G21     29.87R
GRAYLING       CLOUDY    63  54  74 W8        29.89R
HARBOR SPRINGS SUNNY     65  53  66 W8        29.88R
HOUGHTON LAKE  CLOUDY    64  53  67 NW10      29.89R
MANISTEE       SUNNY     67  55  65 W14G20    29.91R
OSCODA         CLOUDY    64  56  76 E5        29.86S
PELLSTON       MOSUNNY   70  47  43 NW12      29.86R
ROGERS CITY    MOSUNNY   67  51  56 N7        29.86R
TRAVERSE CITY  CLOUDY    66  54  65 W21G28    29.87R
$$
MIZ007>008-015-242200-
EASTERN UPPER MICHIGAN

CITY           SKY/WX    TMP DP  RH WIND       PRES   REMARKS
KINROSS        SUNNY     69  48  47 N10       29.85R
MACKINAC ISLAN MOSUNNY   66  56  68 W10       29.85R
NEWBERRY       SUNNY     69  41  36 CALM      29.84S
S. S. MARIE    SUNNY     68  48  48 NW10G17   29.84R
MUNISING         N/A     55  50  83 N7        29.90R
$$
MIZ004>006-011>014-085-242200-
CENTRAL UPPER MICHIGAN

CITY           SKY/WX    TMP DP  RH WIND       PRES   REMARKS
MANISTIQUE     CLOUDY    60  57  89 NW3       29.87S
ESCANABA       LGT RAIN  59  57  94 S3        29.89R
MENOMINEE      LGT RAIN  61  57  87 N12       29.91S
SAWYER-GWINN   LGT RAIN  55  54  94 CALM      29.91R
$$
MIZ001>003-009>011-084-242200-
WESTERN UPPER MICHIGAN

CITY           SKY/WX    TMP DP  RH WIND       PRES   REMARKS
IRON MOUNTAIN  LGT RAIN  58  52  80 NW12      29.90R
HOUGHTON       CLOUDY    54  51  90 W15       29.90R
COPPER HARBOR    N/A     55  53  93 N13       29.88R
IRONWOOD       CLOUDY    56  53  90 W10       29.93
$$

ABBREVIATIONS USED IN REMARKS
   TC - TEMPERATURE IN CELSIUS
  WCI - WIND CHILL INDEX
   HX - HEAT INDEX
  VSB - VISIBILITY




USA.gov is the U.S. government's official web portal to all federal, state and local government web resources and services.